Regional Weather Roundup
Issued by NWS Cleveland, OH

Home | Current Version | Previous Version | Text Only | Print | Product List | Glossary Off
Versions: 1 2 3 4 5 6 7 8 9 10 11 12 13 14 15 16 17 18 19 20 21 22 23 24 25 26 27 28 29 30 31 32 33 34 35 36 37 38 39 40 41 42 43 44 45 46 47 48 49 50

490
ASUS41 KCLE 250912
RWRCLE
OHIO REGIONAL WEATHER ROUNDUP
NATIONAL WEATHER SERVICE WILMINGTON, OH
400 AM EST SUN FEB 25 2018

NOTE: "FAIR" INDICATES FEW OR NO CLOUDS BELOW 12,000 FEET WITH NO
SIGNIFICANT WEATHER AND/OR OBSTRUCTIONS TO VISIBILITY.

OHZ001>008-015>018-024>027-034-035-043-044-251000-
   NORTHWEST OHIO

CITY           SKY/WX    TMP DP  RH WIND       PRES   REMARKS
DEFIANCE       LGT RAIN  54  52  93 SW17G26   29.51F
FINDLAY        CLOUDY    57  51  80 SW26G36   29.55F
TOLEDO EXPRESS LGT RAIN  47  47 100 S7        29.51F FOG
TOLEDO EXEC    CLOUDY    45  43  93 S8        29.53F FOG
LIMA           CLOUDY    56  54  93 SW20G37   29.57S
$$

OHZ009>014-019>023-028>033-038-089-251000-
   NORTHEAST OHIO

CITY           SKY/WX    TMP DP  RH WIND       PRES   REMARKS
CLE-HOPKINS    CLOUDY    52  50  93 SE13      29.60S
CLE-LAKEFRONT  MOCLDY    52  48  86 S21G26    29.57R
CUY CO. ARPT   NOT AVBL
LORAIN-ELYRIA  CLOUDY    52  46  80 S13       29.56F
ASHTABULA      CLOUDY    48  47  96 SE8       29.63F
AKRON-CANTON   LGT RAIN  57  53  86 SW20G32   29.62R
WOOSTER        FAIR      55  53  93 SW14      29.61F
MANSFIELD      FAIR      56  54  93 S18       29.59S
YOUNGSTOWN     CLOUDY    51  50  96 S9G18     29.65S
$$

OHZ042-051>053-060>062-070>072-077>081-251000-
  SOUTHWEST OHIO

CITY           SKY/WX    TMP DP  RH WIND       PRES   REMARKS
CINC-COVINGTON LGT RAIN  59  57  93 SW7       29.72R
CINC-LUNKEN    MOCLDY    60  56  86 SW18      29.72R
HAMILTON       MOCLDY    60  56  86 SW12G20   29.70R
DAYTON         LGT RAIN  57  56  96 SW15      29.66R
WRIGHT-PAT AFB CLOUDY    59  55  88 S22G28    29.65R
DAYTON GENERAL CLOUDY    60  55  83 SW15G23   29.67R
WILMINGTON     MOCLDY    58  55  90 SW22G30   29.69R
$$

OHZ036-037-039>041-045>050-054>059-063>069-073>076-082>088-251000-
  CENTRAL AND SOUTHEAST OHIO

CITY           SKY/WX    TMP DP  RH WIND       PRES   REMARKS
COLUMBUS       DRIZZLE   59  55  87 SW15      29.67S
OSU AIRPORT    FAIR      58  56  93 S16       29.65S
BOLTON FIELD   MOCLDY    58  55  88 SW18G25   29.68R
RICKENBACK AFB MOCLDY    57  56  97 SW23G30   29.67R
NEWARK         CLOUDY    60  54  80 S23G33    29.62F
MARION         CLOUDY    55  52  89 S15       29.60F
LANCASTER      LGT RAIN  59  54  83 S22G31    29.64F
ZANESVILLE     LGT RAIN  60  55  83 SW16G25   29.72S
NEW PHILLY     LGT RAIN  60  55  83 S13G28    29.67F
$$




USA.gov is the U.S. government's official web portal to all federal, state and local government web resources and services.